GEFSCGP_prec_meanprecacc_216.txt.gz
Total_Precipitation_Accumulation
0.76 1.27 1.56 1.45 1.46 1.41 1.21 1.15 1.02 0.85 0.84 0.86 0.77 0.77 0.83 0.84 0.80 0.66 0.50 0.40 0.36 0.29 0.23 0.21 0.21 0.24 0.26 0.30 0.36 0.43 0.49 0.66 0.79 0.85 0.95 1.13 1.30 1.47 1.62 1.74 1.64 1.50 1.46 1.63
0.83 1.11 0.88 0.81 0.95 0.99 1.04 1.04 0.91 0.78 0.68 0.67 0.67 0.70 0.74 0.71 0.68 0.55 0.42 0.34 0.27 0.20 0.17 0.13 0.11 0.13 0.16 0.19 0.23 0.29 0.37 0.47 0.59 0.75 0.98 1.18 1.47 1.56 1.64 1.78 1.82 1.76 1.70 1.85
0.89 0.79 0.55 0.64 0.81 0.85 0.84 0.88 0.80 0.71 0.62 0.59 0.57 0.69 0.70 0.64 0.60 0.51 0.38 0.30 0.22 0.16 0.12 0.09 0.09 0.08 0.13 0.14 0.15 0.22 0.34 0.47 0.68 0.92 1.23 1.52 1.74 1.82 1.87 1.82 1.89 1.97 2.02 2.08
0.83 0.61 0.53 0.63 0.68 0.71 0.79 0.60 0.54 0.51 0.57 0.59 0.54 0.76 0.59 0.50 0.50 0.44 0.37 0.33 0.25 0.18 0.13 0.10 0.11 0.10 0.11 0.14 0.18 0.29 0.47 0.66 0.92 1.26 1.61 1.84 2.06 2.16 2.01 1.99 2.02 2.03 1.99 2.02
0.68 0.55 0.52 0.60 0.49 0.46 0.53 0.45 0.52 0.53 0.50 0.43 0.35 0.48 0.46 0.41 0.47 0.37 0.30 0.30 0.30 0.24 0.18 0.16 0.18 0.18 0.21 0.28 0.34 0.50 0.75 1.04 1.32 1.55 1.74 1.94 2.07 2.09 2.07 2.02 2.01 1.95 1.92 1.88
0.50 0.43 0.45 0.42 0.35 0.36 0.38 0.46 0.57 0.59 0.57 0.54 0.31 0.36 0.44 0.40 0.38 0.34 0.29 0.26 0.24 0.23 0.23 0.24 0.27 0.33 0.40 0.44 0.57 0.75 0.92 1.21 1.39 1.51 1.62 1.81 1.96 2.01 2.02 2.00 2.00 1.99 1.97 1.87
0.45 0.38 0.31 0.27 0.32 0.34 0.38 0.58 0.82 0.86 0.82 0.60 0.30 0.42 0.50 0.41 0.33 0.29 0.30 0.28 0.25 0.28 0.32 0.32 0.42 0.55 0.64 0.67 0.76 0.90 0.98 1.16 1.27 1.32 1.39 1.54 1.61 1.67 1.73 1.72 1.69 1.63 1.59 1.58
0.43 0.42 0.28 0.24 0.29 0.32 0.34 0.50 0.81 0.89 0.77 0.56 0.42 0.62 0.60 0.42 0.34 0.31 0.31 0.28 0.31 0.41 0.49 0.58 0.71 0.81 0.87 0.88 0.85 0.86 0.99 1.04 1.02 1.05 1.05 1.18 1.27 1.33 1.40 1.40 1.40 1.43 1.47 1.48
0.35 0.36 0.22 0.16 0.18 0.26 0.32 0.34 0.40 0.57 0.52 0.54 0.53 0.75 0.72 0.43 0.37 0.33 0.31 0.33 0.40 0.55 0.73 0.94 1.12 1.23 1.30 1.21 1.01 0.88 0.88 0.88 0.85 0.91 0.95 0.99 1.08 1.13 1.16 1.20 1.15 1.25 1.30 1.29
0.27 0.34 0.26 0.18 0.19 0.21 0.26 0.35 0.44 0.67 0.83 0.78 0.72 0.88 0.88 0.62 0.51 0.43 0.43 0.53 0.69 0.89 1.16 1.41 1.64 1.76 1.73 1.54 1.27 0.99 0.83 0.80 0.77 0.80 0.84 0.90 0.94 0.96 0.95 0.99 0.94 1.00 1.10 1.09
0.21 0.33 0.29 0.23 0.25 0.27 0.29 0.40 0.50 0.66 0.75 0.96 1.10 1.15 0.94 0.83 0.74 0.71 0.77 0.94 1.15 1.41 1.59 1.73 1.88 1.92 1.66 1.48 1.24 0.98 0.82 0.85 0.87 0.86 0.86 0.85 0.82 0.81 0.81 0.81 0.78 0.82 0.89 0.89
0.16 0.27 0.32 0.21 0.19 0.24 0.40 0.58 0.75 1.04 0.98 0.94 1.17 1.25 0.91 0.84 0.88 0.91 1.02 1.08 1.19 1.34 1.34 1.41 1.47 1.43 1.38 1.34 1.16 1.01 0.92 0.93 0.97 0.97 0.97 0.90 0.81 0.76 0.75 0.73 0.66 0.67 0.65 0.64
0.22 0.36 0.44 0.39 0.42 0.45 0.52 0.55 0.62 0.79 0.89 0.93 1.19 1.31 0.89 0.81 0.80 0.94 1.11 1.17 1.25 1.27 1.16 1.15 1.16 1.18 1.20 1.17 1.06 1.05 1.02 1.03 1.03 1.01 0.91 0.83 0.76 0.66 0.61 0.54 0.50 0.57 0.59 0.65
0.23 0.37 0.50 0.60 0.58 0.56 0.62 0.59 0.51 0.61 0.89 0.94 1.11 1.13 0.93 0.85 0.81 0.89 1.01 1.10 1.07 1.00 0.93 0.92 0.96 1.01 1.09 1.07 1.04 0.99 0.95 0.99 1.09 1.14 1.03 0.92 0.80 0.70 0.64 0.55 0.51 0.50 0.53 0.60
0.17 0.19 0.22 0.23 0.24 0.32 0.53 0.63 0.60 0.57 0.63 0.86 0.87 0.79 0.75 0.70 0.72 0.74 0.77 0.74 0.66 0.62 0.63 0.66 0.70 0.70 0.67 0.63 0.66 0.70 0.76 0.87 1.02 1.16 1.14 1.00 0.81 0.68 0.62 0.59 0.51 0.49 0.50 0.51
0.11 0.12 0.11 0.11 0.12 0.21 0.36 0.46 0.48 0.45 0.44 0.53 0.60 0.59 0.49 0.47 0.52 0.53 0.54 0.49 0.46 0.42 0.39 0.38 0.38 0.39 0.38 0.34 0.31 0.31 0.39 0.55 0.79 1.05 1.02 0.81 0.64 0.51 0.48 0.49 0.48 0.44 0.43 0.48
0.06 0.10 0.14 0.13 0.09 0.16 0.38 0.41 0.39 0.39 0.31 0.32 0.37 0.38 0.34 0.37 0.43 0.44 0.48 0.48 0.37 0.30 0.28 0.28 0.26 0.26 0.25 0.23 0.21 0.23 0.31 0.43 0.59 0.71 0.68 0.58 0.47 0.45 0.48 0.50 0.46 0.44 0.45 0.45
0.05 0.09 0.14 0.15 0.17 0.41 0.64 0.56 0.47 0.44 0.25 0.17 0.19 0.21 0.25 0.35 0.38 0.38 0.37 0.37 0.36 0.26 0.19 0.20 0.19 0.18 0.20 0.21 0.24 0.27 0.31 0.37 0.42 0.46 0.47 0.42 0.39 0.41 0.43 0.44 0.44 0.51 0.56 0.53
0.08 0.17 0.23 0.24 0.30 0.50 0.59 0.52 0.52 0.51 0.35 0.15 0.13 0.14 0.14 0.13 0.15 0.18 0.19 0.18 0.17 0.14 0.11 0.11 0.11 0.10 0.11 0.11 0.12 0.13 0.15 0.16 0.17 0.17 0.19 0.19 0.19 0.21 0.22 0.24 0.30 0.41 0.48 0.51
0.11 0.18 0.27 0.29 0.37 0.49 0.40 0.25 0.27 0.40 0.47 0.13 0.08 0.07 0.06 0.04 0.07 0.10 0.11 0.12 0.10 0.07 0.08 0.08 0.08 0.08 0.09 0.09 0.08 0.05 0.05 0.06 0.06 0.06 0.07 0.09 0.10 0.10 0.10 0.13 0.16 0.23 0.24 0.30
0.11 0.18 0.23 0.30 0.48 0.66 0.47 0.27 0.25 0.44 0.44 0.10 0.05 0.04 0.03 0.04 0.03 0.05 0.08 0.10 0.09 0.08 0.09 0.08 0.08 0.08 0.10 0.10 0.09 0.08 0.06 0.05 0.06 0.07 0.09 0.09 0.09 0.08 0.08 0.09 0.11 0.14 0.15 0.20
0.15 0.21 0.25 0.37 0.65 0.85 0.65 0.43 0.37 0.29 0.13 0.06 0.02 0.02 0.02 0.02 0.03 0.03 0.06 0.08 0.08 0.08 0.08 0.08 0.07 0.08 0.09 0.09 0.09 0.09 0.09 0.08 0.07 0.08 0.08 0.09 0.09 0.10 0.09 0.09 0.10 0.11 0.13 0.14
0.09 0.12 0.17 0.30 0.51 0.54 0.49 0.37 0.27 0.20 0.10 0.03 0.02 0.02 0.01 0.02 0.02 0.03 0.05 0.05 0.05 0.06 0.07 0.07 0.08 0.08 0.09 0.09 0.09 0.09 0.10 0.10 0.09 0.09 0.09 0.09 0.10 0.10 0.09 0.10 0.12 0.11 0.12 0.14
0.08 0.08 0.10 0.11 0.16 0.18 0.20 0.20 0.14 0.11 0.07 0.03 0.02 0.02 0.02 0.02 0.02 0.03 0.05 0.06 0.06 0.05 0.06 0.07 0.08 0.08 0.09 0.10 0.10 0.11 0.11 0.10 0.08 0.09 0.10 0.11 0.11 0.11 0.11 0.11 0.12 0.12 0.13 0.14
0.07 0.10 0.12 0.11 0.08 0.06 0.10 0.11 0.10 0.07 0.04 0.02 0.02 0.02 0.03 0.03 0.04 0.03 0.04 0.07 0.08 0.07 0.08 0.10 0.11 0.10 0.10 0.11 0.12 0.14 0.14 0.11 0.09 0.09 0.10 0.10 0.10 0.10 0.10 0.11 0.10 0.10 0.10 0.13
0.03 0.07 0.11 0.11 0.07 0.06 0.06 0.07 0.05 0.04 0.02 0.01 0.01 0.02 0.02 0.01 0.02 0.02 0.03 0.04 0.07 0.08 0.08 0.09 0.11 0.11 0.10 0.10 0.11 0.13 0.15 0.16 0.15 0.12 0.10 0.10 0.09 0.09 0.09 0.10 0.10 0.10 0.10 0.14

GEFSCGP_prec_meanprecacc_222.txt.gz
Total_Precipitation_Accumulation
0.76 1.28 1.58 1.47 1.47 1.42 1.23 1.16 1.03 0.87 0.86 0.88 0.78 0.78 0.84 0.84 0.81 0.67 0.52 0.41 0.37 0.30 0.23 0.21 0.21 0.24 0.27 0.30 0.37 0.44 0.50 0.67 0.80 0.86 0.96 1.13 1.31 1.48 1.63 1.74 1.64 1.50 1.46 1.63
0.84 1.12 0.89 0.82 0.96 1.01 1.06 1.05 0.92 0.78 0.69 0.68 0.68 0.71 0.75 0.72 0.70 0.57 0.44 0.35 0.28 0.20 0.17 0.14 0.12 0.13 0.16 0.20 0.24 0.30 0.37 0.48 0.60 0.76 0.98 1.18 1.47 1.56 1.65 1.78 1.82 1.76 1.70 1.85
0.89 0.80 0.56 0.64 0.83 0.86 0.86 0.89 0.81 0.72 0.63 0.60 0.58 0.71 0.71 0.66 0.62 0.53 0.40 0.31 0.23 0.16 0.13 0.10 0.09 0.09 0.13 0.14 0.16 0.23 0.35 0.48 0.69 0.92 1.24 1.52 1.75 1.82 1.87 1.83 1.89 1.98 2.02 2.08
0.83 0.61 0.54 0.64 0.70 0.73 0.81 0.61 0.55 0.51 0.58 0.61 0.56 0.79 0.60 0.52 0.52 0.45 0.38 0.34 0.26 0.18 0.13 0.11 0.11 0.10 0.11 0.14 0.19 0.30 0.48 0.67 0.93 1.26 1.61 1.85 2.07 2.17 2.02 1.99 2.02 2.03 1.99 2.02
0.69 0.56 0.53 0.61 0.50 0.47 0.54 0.46 0.53 0.54 0.51 0.45 0.36 0.49 0.47 0.42 0.48 0.38 0.30 0.31 0.30 0.25 0.18 0.16 0.18 0.18 0.22 0.28 0.35 0.51 0.75 1.05 1.32 1.56 1.74 1.95 2.07 2.09 2.07 2.03 2.02 1.95 1.92 1.89
0.51 0.43 0.45 0.42 0.35 0.36 0.39 0.46 0.58 0.59 0.58 0.57 0.32 0.37 0.46 0.40 0.39 0.34 0.29 0.26 0.24 0.23 0.23 0.24 0.27 0.33 0.40 0.44 0.58 0.76 0.93 1.22 1.40 1.52 1.63 1.81 1.96 2.01 2.02 2.00 2.00 2.00 1.97 1.87
0.46 0.38 0.31 0.28 0.32 0.34 0.39 0.60 0.83 0.87 0.83 0.62 0.31 0.43 0.51 0.42 0.33 0.29 0.30 0.28 0.25 0.28 0.32 0.33 0.42 0.56 0.64 0.68 0.76 0.90 0.99 1.16 1.27 1.32 1.39 1.54 1.61 1.68 1.73 1.72 1.69 1.63 1.59 1.58
0.44 0.43 0.29 0.25 0.30 0.32 0.34 0.51 0.83 0.90 0.78 0.57 0.42 0.63 0.61 0.42 0.34 0.31 0.31 0.29 0.31 0.41 0.49 0.59 0.71 0.81 0.88 0.88 0.85 0.87 1.00 1.05 1.03 1.05 1.06 1.18 1.27 1.33 1.40 1.41 1.40 1.43 1.47 1.48
0.36 0.36 0.22 0.17 0.18 0.26 0.33 0.35 0.41 0.58 0.53 0.55 0.54 0.76 0.73 0.44 0.37 0.33 0.32 0.33 0.40 0.55 0.74 0.95 1.12 1.23 1.30 1.21 1.02 0.88 0.89 0.88 0.86 0.91 0.95 1.00 1.09 1.13 1.16 1.20 1.16 1.26 1.30 1.29
0.28 0.35 0.27 0.18 0.20 0.21 0.27 0.36 0.45 0.69 0.84 0.79 0.73 0.89 0.89 0.63 0.51 0.43 0.44 0.54 0.69 0.89 1.17 1.42 1.64 1.76 1.73 1.54 1.28 1.00 0.84 0.80 0.78 0.81 0.85 0.90 0.95 0.96 0.95 1.00 0.94 1.00 1.10 1.10
0.22 0.34 0.30 0.24 0.25 0.28 0.29 0.41 0.51 0.67 0.76 0.97 1.11 1.16 0.95 0.84 0.75 0.71 0.77 0.94 1.15 1.41 1.59 1.74 1.89 1.93 1.67 1.49 1.25 0.99 0.83 0.86 0.88 0.88 0.88 0.87 0.83 0.82 0.82 0.81 0.78 0.82 0.89 0.89
0.17 0.27 0.32 0.21 0.19 0.24 0.42 0.59 0.76 1.05 0.99 0.95 1.17 1.26 0.92 0.84 0.88 0.91 1.02 1.08 1.20 1.34 1.34 1.42 1.49 1.44 1.39 1.35 1.17 1.02 0.93 0.94 0.99 0.99 0.99 0.92 0.82 0.77 0.76 0.73 0.66 0.67 0.65 0.64
0.24 0.38 0.45 0.39 0.42 0.45 0.53 0.56 0.63 0.80 0.89 0.93 1.20 1.32 0.89 0.81 0.80 0.94 1.12 1.18 1.25 1.27 1.17 1.16 1.17 1.21 1.22 1.19 1.07 1.06 1.03 1.04 1.04 1.02 0.92 0.85 0.77 0.67 0.61 0.54 0.50 0.58 0.59 0.65
0.24 0.39 0.51 0.61 0.59 0.56 0.63 0.59 0.52 0.62 0.90 0.94 1.12 1.13 0.93 0.85 0.81 0.89 1.02 1.11 1.07 1.01 0.94 0.93 0.98 1.04 1.11 1.08 1.04 1.00 0.95 0.99 1.09 1.14 1.04 0.93 0.81 0.71 0.64 0.56 0.52 0.52 0.54 0.60
0.17 0.20 0.23 0.24 0.25 0.33 0.53 0.63 0.61 0.58 0.64 0.87 0.87 0.79 0.75 0.70 0.72 0.74 0.77 0.74 0.67 0.62 0.64 0.68 0.73 0.72 0.68 0.64 0.67 0.70 0.77 0.88 1.03 1.16 1.15 1.00 0.81 0.69 0.63 0.59 0.52 0.51 0.51 0.52
0.11 0.13 0.12 0.11 0.12 0.21 0.36 0.47 0.48 0.45 0.44 0.53 0.60 0.59 0.49 0.48 0.52 0.53 0.54 0.50 0.47 0.43 0.40 0.39 0.40 0.40 0.39 0.35 0.31 0.31 0.39 0.55 0.80 1.05 1.03 0.81 0.64 0.52 0.48 0.50 0.49 0.45 0.45 0.50
0.06 0.10 0.14 0.13 0.10 0.17 0.38 0.41 0.39 0.39 0.31 0.32 0.37 0.38 0.34 0.37 0.43 0.44 0.48 0.48 0.37 0.30 0.29 0.28 0.27 0.27 0.25 0.24 0.22 0.23 0.31 0.43 0.60 0.71 0.68 0.58 0.48 0.45 0.49 0.51 0.46 0.45 0.46 0.46
0.06 0.09 0.15 0.15 0.17 0.41 0.65 0.56 0.47 0.44 0.25 0.17 0.19 0.21 0.25 0.35 0.38 0.38 0.37 0.37 0.36 0.26 0.20 0.20 0.19 0.19 0.21 0.21 0.24 0.28 0.32 0.37 0.42 0.46 0.47 0.42 0.39 0.41 0.44 0.45 0.45 0.51 0.57 0.54
0.08 0.18 0.24 0.25 0.30 0.50 0.59 0.52 0.52 0.51 0.35 0.15 0.13 0.14 0.14 0.13 0.16 0.18 0.19 0.18 0.17 0.14 0.11 0.11 0.11 0.10 0.12 0.12 0.12 0.13 0.15 0.16 0.17 0.18 0.19 0.19 0.19 0.21 0.23 0.24 0.31 0.42 0.49 0.52
0.11 0.18 0.28 0.30 0.38 0.50 0.40 0.25 0.27 0.40 0.48 0.13 0.08 0.07 0.06 0.04 0.07 0.10 0.11 0.12 0.10 0.07 0.08 0.08 0.08 0.08 0.09 0.09 0.08 0.06 0.06 0.06 0.06 0.07 0.07 0.09 0.10 0.11 0.11 0.14 0.18 0.24 0.25 0.31
0.11 0.18 0.24 0.30 0.48 0.67 0.47 0.27 0.25 0.45 0.44 0.11 0.05 0.04 0.03 0.04 0.03 0.05 0.08 0.10 0.09 0.08 0.09 0.08 0.08 0.08 0.10 0.11 0.09 0.08 0.07 0.06 0.07 0.08 0.10 0.10 0.09 0.09 0.09 0.10 0.13 0.16 0.17 0.21
0.15 0.22 0.26 0.38 0.66 0.86 0.65 0.43 0.37 0.30 0.14 0.06 0.03 0.02 0.02 0.02 0.03 0.04 0.06 0.08 0.08 0.08 0.08 0.08 0.07 0.08 0.09 0.09 0.09 0.09 0.10 0.09 0.09 0.09 0.09 0.09 0.10 0.10 0.09 0.10 0.12 0.15 0.15 0.16
0.09 0.13 0.18 0.32 0.53 0.55 0.49 0.37 0.27 0.20 0.10 0.03 0.02 0.02 0.02 0.02 0.02 0.03 0.05 0.05 0.05 0.06 0.07 0.08 0.08 0.08 0.09 0.09 0.09 0.09 0.10 0.11 0.10 0.09 0.09 0.10 0.11 0.11 0.10 0.11 0.14 0.14 0.15 0.17
0.08 0.08 0.10 0.11 0.16 0.19 0.21 0.20 0.14 0.11 0.07 0.03 0.02 0.02 0.02 0.02 0.02 0.03 0.05 0.06 0.06 0.06 0.07 0.07 0.09 0.09 0.09 0.10 0.10 0.11 0.11 0.11 0.09 0.10 0.11 0.12 0.12 0.12 0.12 0.13 0.14 0.15 0.16 0.18
0.07 0.10 0.12 0.12 0.08 0.06 0.10 0.11 0.10 0.07 0.04 0.02 0.02 0.02 0.03 0.03 0.04 0.04 0.05 0.09 0.09 0.09 0.09 0.11 0.12 0.11 0.10 0.11 0.13 0.15 0.15 0.12 0.10 0.11 0.12 0.12 0.12 0.12 0.12 0.13 0.13 0.13 0.14 0.17
0.03 0.07 0.11 0.12 0.07 0.06 0.07 0.07 0.06 0.04 0.03 0.02 0.02 0.02 0.03 0.02 0.03 0.04 0.04 0.06 0.08 0.09 0.09 0.10 0.11 0.12 0.11 0.11 0.12 0.14 0.17 0.18 0.18 0.14 0.12 0.11 0.11 0.11 0.11 0.12 0.12 0.13 0.13 0.18

GEFSCGP_prec_meanprecacc_228.txt.gz
Total_Precipitation_Accumulation
0.77 1.31 1.61 1.50 1.49 1.44 1.24 1.19 1.05 0.88 0.87 0.89 0.80 0.80 0.85 0.85 0.82 0.68 0.53 0.42 0.38 0.31 0.23 0.21 0.21 0.24 0.27 0.31 0.37 0.44 0.50 0.68 0.81 0.87 0.97 1.15 1.32 1.48 1.63 1.74 1.64 1.50 1.46 1.63
0.85 1.14 0.90 0.82 0.96 1.02 1.07 1.08 0.94 0.80 0.69 0.69 0.69 0.72 0.76 0.73 0.70 0.58 0.45 0.37 0.29 0.21 0.18 0.14 0.12 0.14 0.17 0.20 0.24 0.30 0.38 0.48 0.61 0.77 1.00 1.19 1.48 1.57 1.65 1.78 1.82 1.76 1.70 1.86
0.90 0.82 0.57 0.65 0.84 0.88 0.87 0.92 0.84 0.75 0.64 0.60 0.59 0.73 0.73 0.66 0.62 0.54 0.41 0.32 0.23 0.17 0.14 0.10 0.10 0.09 0.13 0.14 0.16 0.23 0.35 0.48 0.69 0.93 1.25 1.53 1.76 1.83 1.88 1.84 1.89 1.98 2.02 2.09
0.83 0.62 0.55 0.66 0.72 0.75 0.84 0.62 0.56 0.55 0.61 0.63 0.57 0.83 0.63 0.52 0.52 0.47 0.39 0.35 0.27 0.18 0.13 0.11 0.11 0.11 0.11 0.14 0.19 0.30 0.48 0.67 0.94 1.27 1.62 1.86 2.09 2.19 2.03 2.00 2.03 2.04 2.00 2.03
0.69 0.56 0.54 0.62 0.51 0.48 0.55 0.46 0.54 0.55 0.54 0.46 0.37 0.53 0.51 0.43 0.49 0.39 0.31 0.31 0.31 0.25 0.19 0.16 0.18 0.18 0.22 0.28 0.35 0.51 0.76 1.05 1.33 1.56 1.75 1.95 2.08 2.10 2.08 2.04 2.03 1.96 1.93 1.90
0.51 0.43 0.45 0.42 0.35 0.37 0.39 0.47 0.59 0.61 0.60 0.61 0.33 0.41 0.50 0.42 0.40 0.35 0.29 0.27 0.24 0.23 0.23 0.24 0.27 0.33 0.40 0.44 0.58 0.76 0.93 1.22 1.41 1.52 1.63 1.82 1.97 2.02 2.03 2.01 2.01 2.01 1.98 1.87
0.46 0.39 0.31 0.28 0.33 0.35 0.39 0.62 0.87 0.92 0.88 0.66 0.32 0.46 0.54 0.42 0.33 0.30 0.30 0.29 0.25 0.29 0.32 0.33 0.42 0.56 0.64 0.68 0.76 0.90 0.99 1.17 1.28 1.33 1.40 1.55 1.62 1.68 1.74 1.73 1.70 1.64 1.59 1.59
0.45 0.44 0.29 0.25 0.31 0.34 0.35 0.54 0.87 0.95 0.83 0.60 0.43 0.66 0.62 0.42 0.34 0.31 0.31 0.29 0.31 0.41 0.50 0.60 0.72 0.82 0.88 0.88 0.85 0.87 1.00 1.05 1.03 1.06 1.06 1.19 1.29 1.35 1.41 1.41 1.41 1.45 1.49 1.50
0.36 0.37 0.22 0.17 0.19 0.27 0.34 0.37 0.42 0.60 0.56 0.59 0.57 0.77 0.73 0.44 0.37 0.33 0.32 0.34 0.40 0.56 0.74 0.96 1.13 1.23 1.30 1.21 1.02 0.89 0.89 0.88 0.86 0.92 0.96 1.01 1.11 1.15 1.18 1.21 1.17 1.26 1.32 1.31
0.28 0.36 0.27 0.18 0.20 0.22 0.28 0.37 0.47 0.71 0.88 0.84 0.77 0.91 0.91 0.63 0.52 0.43 0.44 0.55 0.69 0.89 1.17 1.42 1.64 1.76 1.74 1.55 1.28 1.00 0.84 0.80 0.78 0.81 0.86 0.92 0.96 0.97 0.96 1.01 0.95 1.01 1.10 1.11
0.22 0.34 0.31 0.24 0.26 0.29 0.32 0.44 0.54 0.71 0.79 1.01 1.15 1.18 0.95 0.84 0.75 0.72 0.78 0.95 1.15 1.41 1.59 1.74 1.89 1.94 1.68 1.49 1.25 0.99 0.84 0.86 0.88 0.88 0.88 0.88 0.84 0.83 0.82 0.81 0.79 0.82 0.90 0.90
0.18 0.28 0.34 0.22 0.20 0.25 0.43 0.63 0.81 1.10 1.02 0.98 1.20 1.27 0.92 0.85 0.88 0.91 1.03 1.09 1.20 1.35 1.36 1.44 1.50 1.46 1.40 1.36 1.18 1.02 0.93 0.94 0.99 1.00 1.00 0.92 0.83 0.77 0.76 0.74 0.67 0.68 0.66 0.65
0.25 0.41 0.48 0.42 0.44 0.47 0.55 0.58 0.65 0.83 0.92 0.97 1.24 1.34 0.89 0.81 0.81 0.95 1.12 1.19 1.27 1.29 1.19 1.17 1.18 1.23 1.24 1.20 1.08 1.06 1.03 1.04 1.04 1.02 0.93 0.86 0.77 0.67 0.62 0.54 0.51 0.58 0.59 0.66
0.24 0.41 0.54 0.65 0.61 0.57 0.64 0.60 0.54 0.64 0.93 0.97 1.13 1.14 0.94 0.85 0.82 0.90 1.04 1.13 1.09 1.03 0.96 0.94 1.00 1.07 1.13 1.09 1.06 1.01 0.96 1.00 1.09 1.14 1.04 0.94 0.82 0.71 0.64 0.56 0.53 0.52 0.54 0.61
0.18 0.21 0.24 0.24 0.25 0.34 0.54 0.64 0.62 0.61 0.67 0.89 0.88 0.80 0.76 0.71 0.74 0.75 0.79 0.76 0.68 0.64 0.65 0.69 0.74 0.74 0.70 0.66 0.69 0.72 0.78 0.88 1.03 1.17 1.15 1.01 0.82 0.69 0.64 0.59 0.52 0.51 0.52 0.53
0.11 0.13 0.12 0.12 0.12 0.21 0.37 0.48 0.49 0.46 0.46 0.54 0.61 0.59 0.50 0.48 0.52 0.53 0.55 0.50 0.47 0.43 0.41 0.40 0.41 0.41 0.39 0.35 0.32 0.33 0.40 0.56 0.81 1.06 1.03 0.82 0.65 0.52 0.49 0.50 0.49 0.45 0.45 0.50
0.07 0.11 0.15 0.14 0.10 0.17 0.39 0.41 0.39 0.39 0.31 0.33 0.39 0.38 0.34 0.37 0.44 0.45 0.49 0.49 0.37 0.30 0.29 0.28 0.28 0.27 0.26 0.24 0.22 0.25 0.32 0.44 0.61 0.72 0.69 0.59 0.48 0.45 0.49 0.51 0.46 0.45 0.46 0.47
0.06 0.10 0.15 0.16 0.18 0.43 0.65 0.56 0.48 0.44 0.25 0.18 0.19 0.22 0.26 0.35 0.38 0.39 0.38 0.37 0.36 0.26 0.20 0.20 0.19 0.19 0.22 0.22 0.25 0.29 0.33 0.38 0.43 0.46 0.47 0.42 0.40 0.41 0.44 0.45 0.45 0.51 0.57 0.54
0.08 0.18 0.24 0.26 0.31 0.51 0.59 0.52 0.52 0.51 0.36 0.16 0.13 0.14 0.14 0.14 0.16 0.18 0.19 0.18 0.18 0.14 0.11 0.11 0.11 0.10 0.12 0.12 0.13 0.14 0.16 0.17 0.18 0.18 0.19 0.20 0.20 0.22 0.24 0.25 0.31 0.42 0.49 0.52
0.11 0.19 0.28 0.31 0.39 0.50 0.40 0.25 0.27 0.40 0.49 0.14 0.09 0.08 0.06 0.05 0.09 0.11 0.11 0.13 0.10 0.07 0.08 0.08 0.08 0.08 0.09 0.10 0.09 0.07 0.06 0.07 0.07 0.07 0.07 0.09 0.11 0.11 0.12 0.14 0.18 0.24 0.25 0.31
0.11 0.19 0.24 0.30 0.49 0.67 0.47 0.27 0.26 0.45 0.46 0.12 0.06 0.04 0.03 0.05 0.04 0.06 0.08 0.10 0.09 0.08 0.09 0.08 0.08 0.09 0.10 0.11 0.10 0.09 0.08 0.07 0.08 0.09 0.10 0.10 0.10 0.10 0.10 0.11 0.13 0.16 0.17 0.21
0.15 0.23 0.27 0.39 0.67 0.86 0.65 0.43 0.38 0.31 0.14 0.07 0.03 0.02 0.02 0.03 0.03 0.04 0.06 0.08 0.08 0.08 0.09 0.08 0.07 0.08 0.09 0.09 0.09 0.09 0.10 0.09 0.09 0.10 0.10 0.10 0.10 0.11 0.10 0.11 0.13 0.15 0.16 0.17
0.10 0.14 0.20 0.33 0.54 0.55 0.49 0.37 0.27 0.21 0.11 0.04 0.03 0.02 0.02 0.02 0.02 0.04 0.05 0.05 0.05 0.06 0.07 0.08 0.08 0.08 0.09 0.09 0.09 0.09 0.10 0.11 0.10 0.10 0.10 0.11 0.12 0.12 0.11 0.12 0.15 0.15 0.16 0.18
0.08 0.08 0.10 0.11 0.16 0.19 0.21 0.20 0.14 0.11 0.08 0.03 0.02 0.03 0.02 0.02 0.02 0.03 0.05 0.06 0.06 0.06 0.07 0.07 0.09 0.09 0.10 0.11 0.10 0.12 0.11 0.11 0.10 0.11 0.13 0.14 0.14 0.14 0.14 0.15 0.16 0.17 0.18 0.19
0.08 0.10 0.12 0.12 0.08 0.06 0.10 0.11 0.10 0.07 0.04 0.02 0.02 0.03 0.03 0.03 0.04 0.04 0.05 0.09 0.09 0.09 0.09 0.11 0.12 0.11 0.11 0.12 0.13 0.15 0.15 0.13 0.12 0.12 0.13 0.13 0.13 0.14 0.14 0.15 0.16 0.16 0.16 0.20
0.03 0.07 0.12 0.12 0.08 0.07 0.07 0.07 0.06 0.04 0.03 0.02 0.02 0.02 0.03 0.03 0.03 0.04 0.05 0.06 0.08 0.09 0.09 0.10 0.12 0.12 0.11 0.11 0.13 0.15 0.18 0.20 0.20 0.17 0.14 0.13 0.12 0.13 0.13 0.14 0.14 0.15 0.15 0.20

GEFSCGP_prec_meanprecacc_234.txt.gz
Total_Precipitation_Accumulation
0.78 1.31 1.63 1.51 1.50 1.45 1.26 1.21 1.07 0.90 0.88 0.90 0.81 0.81 0.86 0.85 0.83 0.69 0.54 0.43 0.38 0.33 0.26 0.24 0.22 0.25 0.28 0.32 0.39 0.45 0.51 0.69 0.82 0.88 0.98 1.16 1.33 1.50 1.64 1.75 1.65 1.51 1.47 1.64
0.86 1.15 0.91 0.83 0.96 1.02 1.09 1.11 0.97 0.82 0.71 0.71 0.71 0.73 0.76 0.73 0.72 0.60 0.46 0.38 0.29 0.23 0.21 0.16 0.13 0.14 0.18 0.21 0.26 0.31 0.39 0.49 0.61 0.78 1.01 1.20 1.49 1.58 1.66 1.79 1.83 1.77 1.71 1.87
0.91 0.83 0.57 0.66 0.85 0.89 0.90 0.95 0.86 0.78 0.67 0.62 0.61 0.75 0.74 0.67 0.64 0.55 0.42 0.33 0.24 0.18 0.15 0.12 0.10 0.10 0.14 0.16 0.17 0.24 0.36 0.49 0.70 0.94 1.26 1.55 1.78 1.86 1.90 1.85 1.90 1.98 2.03 2.10
0.84 0.62 0.56 0.66 0.73 0.76 0.86 0.64 0.58 0.57 0.64 0.65 0.58 0.84 0.64 0.53 0.54 0.48 0.40 0.36 0.28 0.19 0.14 0.12 0.12 0.11 0.12 0.15 0.20 0.31 0.49 0.68 0.95 1.29 1.63 1.87 2.10 2.21 2.05 2.03 2.06 2.06 2.01 2.04
0.69 0.57 0.54 0.63 0.52 0.49 0.57 0.49 0.56 0.57 0.56 0.49 0.39 0.54 0.53 0.44 0.50 0.41 0.33 0.33 0.32 0.26 0.19 0.17 0.18 0.18 0.22 0.28 0.36 0.52 0.77 1.06 1.35 1.58 1.76 1.96 2.09 2.11 2.09 2.05 2.04 1.97 1.94 1.90
0.51 0.43 0.46 0.43 0.36 0.38 0.40 0.48 0.61 0.62 0.61 0.63 0.34 0.42 0.52 0.43 0.41 0.36 0.31 0.29 0.26 0.24 0.24 0.24 0.27 0.33 0.40 0.45 0.59 0.77 0.95 1.24 1.42 1.54 1.65 1.82 1.98 2.02 2.04 2.02 2.02 2.01 1.98 1.88
0.47 0.39 0.32 0.28 0.34 0.36 0.40 0.64 0.91 0.95 0.91 0.68 0.34 0.49 0.58 0.44 0.35 0.31 0.31 0.30 0.26 0.30 0.34 0.34 0.42 0.56 0.65 0.68 0.77 0.91 1.00 1.18 1.30 1.34 1.42 1.57 1.63 1.69 1.75 1.74 1.70 1.65 1.61 1.61
0.45 0.45 0.29 0.25 0.32 0.36 0.36 0.55 0.91 1.00 0.86 0.62 0.47 0.70 0.65 0.43 0.35 0.32 0.32 0.30 0.32 0.42 0.52 0.61 0.73 0.82 0.89 0.89 0.86 0.88 1.01 1.06 1.05 1.08 1.08 1.22 1.31 1.36 1.42 1.42 1.41 1.45 1.50 1.53
0.37 0.37 0.22 0.17 0.19 0.28 0.35 0.38 0.45 0.64 0.60 0.64 0.61 0.80 0.75 0.45 0.38 0.34 0.33 0.35 0.42 0.57 0.75 0.97 1.14 1.24 1.31 1.22 1.03 0.90 0.90 0.89 0.87 0.93 0.97 1.04 1.13 1.17 1.19 1.22 1.18 1.27 1.32 1.32
0.28 0.36 0.28 0.19 0.20 0.23 0.29 0.39 0.50 0.75 0.92 0.88 0.79 0.93 0.92 0.65 0.53 0.45 0.46 0.55 0.70 0.90 1.18 1.43 1.67 1.78 1.75 1.56 1.30 1.02 0.85 0.82 0.79 0.82 0.88 0.94 0.98 0.99 0.98 1.02 0.96 1.02 1.11 1.11
0.22 0.35 0.31 0.24 0.26 0.30 0.33 0.47 0.58 0.74 0.82 1.04 1.17 1.20 0.97 0.87 0.76 0.73 0.79 0.95 1.16 1.42 1.61 1.76 1.91 1.95 1.69 1.51 1.27 1.01 0.86 0.88 0.90 0.90 0.91 0.90 0.85 0.84 0.83 0.82 0.79 0.83 0.90 0.90
0.18 0.29 0.35 0.23 0.20 0.25 0.44 0.64 0.83 1.14 1.06 1.01 1.22 1.28 0.93 0.86 0.89 0.92 1.04 1.10 1.22 1.36 1.37 1.45 1.53 1.49 1.44 1.38 1.21 1.04 0.95 0.96 1.00 1.01 1.02 0.94 0.84 0.78 0.77 0.74 0.67 0.68 0.67 0.66
0.27 0.42 0.49 0.43 0.45 0.48 0.55 0.59 0.66 0.84 0.95 1.01 1.27 1.35 0.90 0.81 0.81 0.96 1.14 1.20 1.28 1.30 1.21 1.19 1.21 1.25 1.27 1.23 1.11 1.09 1.05 1.06 1.06 1.05 0.96 0.88 0.79 0.68 0.62 0.55 0.51 0.58 0.60 0.67
0.26 0.45 0.56 0.66 0.62 0.58 0.64 0.61 0.54 0.65 0.94 1.00 1.16 1.15 0.94 0.86 0.83 0.92 1.05 1.14 1.11 1.04 0.98 0.96 1.03 1.11 1.16 1.12 1.09 1.04 0.99 1.02 1.12 1.18 1.08 0.97 0.85 0.73 0.65 0.57 0.53 0.53 0.56 0.63
0.18 0.23 0.26 0.26 0.25 0.34 0.55 0.65 0.63 0.61 0.68 0.90 0.89 0.81 0.77 0.72 0.74 0.76 0.81 0.78 0.70 0.65 0.66 0.71 0.76 0.76 0.73 0.68 0.72 0.75 0.80 0.91 1.06 1.20 1.17 1.03 0.85 0.72 0.65 0.60 0.53 0.52 0.54 0.55
0.12 0.14 0.13 0.13 0.13 0.22 0.37 0.48 0.50 0.47 0.47 0.56 0.62 0.61 0.52 0.49 0.53 0.55 0.57 0.53 0.49 0.45 0.42 0.41 0.43 0.42 0.41 0.37 0.34 0.35 0.42 0.58 0.83 1.08 1.06 0.84 0.67 0.54 0.50 0.51 0.50 0.48 0.47 0.52
0.07 0.11 0.15 0.14 0.11 0.18 0.40 0.42 0.39 0.40 0.33 0.34 0.39 0.39 0.35 0.38 0.45 0.46 0.51 0.53 0.40 0.32 0.30 0.30 0.30 0.29 0.27 0.26 0.25 0.26 0.34 0.45 0.62 0.73 0.71 0.61 0.50 0.47 0.50 0.52 0.47 0.46 0.47 0.48
0.06 0.10 0.17 0.17 0.18 0.44 0.66 0.57 0.48 0.44 0.26 0.19 0.20 0.22 0.26 0.36 0.40 0.41 0.40 0.41 0.40 0.29 0.21 0.21 0.21 0.21 0.24 0.24 0.27 0.30 0.35 0.40 0.44 0.48 0.49 0.44 0.41 0.42 0.45 0.46 0.45 0.52 0.58 0.55
0.09 0.18 0.25 0.26 0.32 0.51 0.59 0.52 0.52 0.51 0.37 0.17 0.14 0.15 0.15 0.15 0.17 0.20 0.21 0.19 0.20 0.17 0.13 0.12 0.12 0.12 0.14 0.13 0.14 0.15 0.17 0.18 0.19 0.19 0.21 0.22 0.21 0.23 0.24 0.25 0.32 0.42 0.49 0.53
0.12 0.19 0.29 0.31 0.40 0.51 0.41 0.25 0.28 0.40 0.49 0.15 0.09 0.08 0.07 0.05 0.10 0.12 0.13 0.14 0.11 0.09 0.10 0.09 0.08 0.09 0.11 0.10 0.10 0.08 0.07 0.07 0.08 0.08 0.09 0.11 0.12 0.13 0.13 0.15 0.19 0.25 0.26 0.31
0.12 0.19 0.25 0.31 0.50 0.68 0.48 0.27 0.26 0.46 0.47 0.12 0.06 0.05 0.04 0.06 0.05 0.07 0.09 0.12 0.11 0.09 0.10 0.10 0.09 0.09 0.10 0.11 0.10 0.09 0.08 0.08 0.08 0.10 0.12 0.12 0.11 0.12 0.12 0.13 0.15 0.17 0.18 0.22
0.16 0.23 0.27 0.39 0.68 0.87 0.65 0.44 0.39 0.32 0.14 0.07 0.04 0.03 0.03 0.04 0.04 0.05 0.07 0.10 0.10 0.09 0.09 0.10 0.08 0.09 0.10 0.10 0.10 0.10 0.10 0.10 0.10 0.11 0.11 0.12 0.12 0.12 0.12 0.13 0.15 0.17 0.17 0.18
0.10 0.14 0.20 0.34 0.55 0.56 0.49 0.38 0.28 0.21 0.11 0.04 0.03 0.02 0.02 0.03 0.03 0.05 0.07 0.06 0.07 0.08 0.08 0.09 0.10 0.10 0.11 0.10 0.10 0.09 0.11 0.12 0.11 0.11 0.11 0.12 0.14 0.13 0.12 0.14 0.16 0.18 0.18 0.20
0.08 0.08 0.10 0.11 0.16 0.19 0.21 0.20 0.14 0.11 0.08 0.03 0.02 0.03 0.03 0.03 0.03 0.03 0.06 0.07 0.07 0.07 0.08 0.08 0.10 0.11 0.12 0.12 0.11 0.12 0.12 0.11 0.10 0.11 0.13 0.14 0.15 0.15 0.15 0.16 0.17 0.19 0.20 0.22
0.08 0.10 0.13 0.12 0.08 0.06 0.10 0.11 0.10 0.07 0.04 0.02 0.02 0.03 0.04 0.04 0.05 0.05 0.06 0.09 0.10 0.09 0.10 0.12 0.13 0.12 0.12 0.13 0.14 0.16 0.16 0.13 0.12 0.12 0.13 0.13 0.14 0.15 0.16 0.17 0.17 0.17 0.18 0.22
0.04 0.08 0.13 0.13 0.08 0.07 0.08 0.07 0.06 0.05 0.03 0.02 0.02 0.03 0.03 0.03 0.04 0.05 0.06 0.07 0.09 0.10 0.09 0.10 0.12 0.12 0.12 0.12 0.13 0.15 0.18 0.20 0.20 0.17 0.15 0.13 0.13 0.14 0.14 0.15 0.16 0.17 0.18 0.22

GEFSCGP_prec_meanprecacc_240.txt.gz
Total_Precipitation_Accumulation
0.79 1.32 1.64 1.52 1.50 1.46 1.27 1.22 1.08 0.92 0.90 0.91 0.83 0.82 0.87 0.86 0.83 0.70 0.55 0.44 0.40 0.34 0.27 0.25 0.23 0.26 0.29 0.33 0.40 0.46 0.52 0.70 0.82 0.88 0.98 1.16 1.34 1.52 1.67 1.77 1.66 1.53 1.48 1.65
0.86 1.16 0.92 0.84 0.97 1.03 1.10 1.12 0.99 0.84 0.72 0.72 0.72 0.74 0.77 0.73 0.72 0.60 0.47 0.39 0.31 0.24 0.22 0.18 0.14 0.15 0.19 0.22 0.26 0.32 0.39 0.49 0.62 0.78 1.01 1.21 1.50 1.60 1.68 1.80 1.84 1.78 1.72 1.88
0.91 0.83 0.58 0.67 0.86 0.90 0.91 0.96 0.88 0.80 0.68 0.63 0.61 0.76 0.75 0.68 0.64 0.56 0.43 0.34 0.25 0.19 0.17 0.13 0.11 0.11 0.16 0.17 0.19 0.26 0.38 0.50 0.71 0.95 1.26 1.55 1.79 1.87 1.92 1.86 1.91 1.99 2.04 2.11
0.84 0.62 0.56 0.67 0.74 0.78 0.87 0.66 0.59 0.58 0.66 0.66 0.59 0.84 0.65 0.55 0.55 0.49 0.41 0.37 0.29 0.20 0.16 0.13 0.12 0.12 0.13 0.17 0.22 0.34 0.51 0.70 0.96 1.29 1.64 1.88 2.11 2.22 2.07 2.04 2.07 2.07 2.02 2.05
0.70 0.57 0.55 0.64 0.52 0.50 0.58 0.50 0.58 0.59 0.57 0.50 0.40 0.55 0.54 0.46 0.51 0.42 0.34 0.34 0.33 0.27 0.20 0.18 0.18 0.19 0.22 0.30 0.37 0.53 0.78 1.08 1.36 1.59 1.77 1.97 2.09 2.12 2.10 2.06 2.05 1.97 1.94 1.91
0.52 0.44 0.46 0.44 0.37 0.38 0.41 0.49 0.62 0.63 0.62 0.64 0.35 0.43 0.53 0.44 0.42 0.37 0.33 0.30 0.27 0.25 0.24 0.25 0.27 0.34 0.41 0.46 0.60 0.78 0.97 1.26 1.44 1.55 1.66 1.83 1.98 2.03 2.04 2.02 2.02 2.02 1.99 1.89
0.47 0.39 0.32 0.28 0.35 0.36 0.40 0.66 0.93 0.97 0.92 0.69 0.34 0.50 0.59 0.45 0.35 0.32 0.32 0.31 0.27 0.31 0.35 0.35 0.43 0.56 0.65 0.69 0.78 0.93 1.03 1.21 1.32 1.36 1.43 1.57 1.64 1.70 1.76 1.74 1.71 1.65 1.62 1.62
0.45 0.45 0.30 0.25 0.32 0.36 0.36 0.56 0.93 1.01 0.87 0.63 0.47 0.71 0.66 0.44 0.35 0.33 0.33 0.31 0.33 0.44 0.53 0.62 0.74 0.83 0.90 0.90 0.88 0.91 1.05 1.10 1.08 1.10 1.10 1.23 1.31 1.37 1.43 1.43 1.42 1.46 1.51 1.54
0.37 0.37 0.23 0.18 0.20 0.28 0.35 0.39 0.46 0.66 0.61 0.64 0.61 0.80 0.75 0.45 0.39 0.34 0.34 0.36 0.42 0.58 0.77 0.98 1.15 1.25 1.32 1.24 1.05 0.92 0.93 0.93 0.90 0.96 0.99 1.06 1.14 1.18 1.21 1.24 1.19 1.28 1.34 1.34
0.28 0.36 0.28 0.19 0.21 0.23 0.30 0.40 0.51 0.76 0.93 0.89 0.80 0.93 0.92 0.65 0.53 0.45 0.46 0.56 0.70 0.91 1.19 1.45 1.67 1.78 1.75 1.57 1.31 1.04 0.87 0.84 0.81 0.84 0.90 0.96 1.00 1.00 0.99 1.02 0.97 1.02 1.12 1.12
0.22 0.35 0.31 0.25 0.27 0.30 0.33 0.47 0.59 0.75 0.83 1.04 1.17 1.20 0.97 0.87 0.76 0.73 0.80 0.96 1.16 1.43 1.62 1.77 1.92 1.96 1.70 1.53 1.29 1.03 0.87 0.89 0.90 0.92 0.93 0.92 0.88 0.86 0.84 0.82 0.79 0.84 0.91 0.91
0.19 0.29 0.35 0.23 0.20 0.25 0.44 0.65 0.84 1.15 1.07 1.02 1.23 1.29 0.93 0.86 0.90 0.93 1.04 1.10 1.22 1.37 1.38 1.46 1.54 1.50 1.46 1.40 1.23 1.06 0.96 0.97 1.01 1.03 1.05 0.97 0.87 0.81 0.78 0.75 0.68 0.69 0.67 0.66
0.28 0.42 0.49 0.43 0.46 0.48 0.56 0.59 0.66 0.84 0.95 1.01 1.28 1.36 0.90 0.81 0.81 0.96 1.14 1.20 1.28 1.31 1.21 1.20 1.22 1.27 1.30 1.26 1.13 1.10 1.06 1.07 1.08 1.07 0.98 0.90 0.81 0.70 0.63 0.56 0.52 0.59 0.61 0.68
0.27 0.45 0.56 0.66 0.62 0.58 0.64 0.61 0.54 0.65 0.94 1.00 1.17 1.15 0.94 0.86 0.83 0.92 1.06 1.15 1.11 1.04 0.98 0.97 1.04 1.12 1.18 1.15 1.11 1.05 1.00 1.04 1.14 1.20 1.10 0.99 0.87 0.76 0.67 0.58 0.54 0.54 0.57 0.64
0.20 0.25 0.27 0.26 0.25 0.34 0.55 0.65 0.63 0.62 0.68 0.90 0.89 0.81 0.77 0.73 0.75 0.77 0.81 0.79 0.70 0.65 0.66 0.71 0.77 0.78 0.74 0.69 0.74 0.77 0.81 0.92 1.08 1.22 1.19 1.05 0.88 0.75 0.68 0.62 0.54 0.54 0.55 0.56
0.13 0.15 0.14 0.14 0.14 0.22 0.38 0.48 0.50 0.47 0.47 0.56 0.62 0.61 0.52 0.49 0.54 0.55 0.58 0.53 0.49 0.45 0.42 0.42 0.43 0.44 0.43 0.38 0.36 0.37 0.44 0.60 0.84 1.10 1.07 0.86 0.69 0.56 0.52 0.53 0.52 0.49 0.48 0.53
0.08 0.12 0.16 0.16 0.12 0.19 0.40 0.42 0.40 0.41 0.33 0.34 0.40 0.39 0.35 0.39 0.45 0.46 0.52 0.53 0.41 0.33 0.31 0.30 0.30 0.30 0.29 0.27 0.26 0.28 0.35 0.47 0.64 0.75 0.73 0.64 0.53 0.50 0.52 0.54 0.48 0.48 0.48 0.49
0.07 0.11 0.17 0.17 0.19 0.45 0.67 0.57 0.48 0.44 0.27 0.19 0.20 0.23 0.26 0.37 0.40 0.42 0.41 0.42 0.41 0.30 0.22 0.21 0.21 0.21 0.24 0.25 0.29 0.33 0.37 0.41 0.45 0.49 0.51 0.46 0.44 0.45 0.48 0.49 0.47 0.53 0.59 0.56
0.10 0.19 0.26 0.27 0.33 0.53 0.61 0.53 0.52 0.51 0.37 0.18 0.15 0.15 0.15 0.15 0.17 0.20 0.22 0.20 0.20 0.17 0.14 0.13 0.12 0.12 0.14 0.14 0.15 0.16 0.19 0.20 0.20 0.20 0.21 0.23 0.22 0.25 0.27 0.28 0.34 0.45 0.51 0.54
0.13 0.20 0.29 0.32 0.41 0.52 0.42 0.26 0.28 0.41 0.50 0.15 0.09 0.09 0.07 0.06 0.10 0.12 0.13 0.14 0.12 0.09 0.11 0.10 0.08 0.09 0.11 0.11 0.11 0.09 0.09 0.09 0.09 0.09 0.10 0.12 0.13 0.13 0.14 0.17 0.22 0.28 0.28 0.33
0.12 0.20 0.25 0.31 0.50 0.68 0.48 0.28 0.27 0.47 0.48 0.13 0.06 0.05 0.04 0.06 0.06 0.07 0.09 0.12 0.11 0.10 0.10 0.10 0.09 0.09 0.11 0.12 0.11 0.10 0.10 0.09 0.09 0.11 0.13 0.14 0.13 0.13 0.13 0.14 0.17 0.21 0.21 0.25
0.16 0.24 0.28 0.40 0.69 0.88 0.66 0.44 0.40 0.33 0.15 0.07 0.04 0.03 0.03 0.04 0.04 0.05 0.08 0.10 0.10 0.09 0.10 0.10 0.09 0.09 0.11 0.11 0.11 0.10 0.11 0.11 0.10 0.11 0.12 0.14 0.14 0.14 0.13 0.14 0.17 0.20 0.21 0.21
0.11 0.15 0.22 0.35 0.55 0.56 0.49 0.38 0.28 0.22 0.11 0.04 0.03 0.02 0.02 0.03 0.03 0.05 0.07 0.07 0.07 0.08 0.08 0.09 0.10 0.10 0.11 0.11 0.11 0.10 0.11 0.12 0.12 0.12 0.12 0.14 0.16 0.15 0.13 0.15 0.18 0.20 0.22 0.23
0.08 0.08 0.11 0.12 0.17 0.19 0.21 0.20 0.14 0.12 0.08 0.03 0.03 0.03 0.03 0.03 0.03 0.04 0.06 0.08 0.07 0.08 0.08 0.08 0.10 0.11 0.12 0.12 0.12 0.13 0.12 0.12 0.11 0.13 0.14 0.16 0.16 0.16 0.16 0.17 0.18 0.20 0.23 0.25
0.08 0.11 0.14 0.13 0.09 0.07 0.10 0.11 0.10 0.07 0.04 0.02 0.02 0.03 0.04 0.04 0.06 0.05 0.07 0.10 0.10 0.10 0.11 0.13 0.13 0.13 0.12 0.13 0.14 0.16 0.16 0.13 0.12 0.13 0.14 0.14 0.15 0.16 0.17 0.17 0.18 0.19 0.20 0.25
0.04 0.09 0.14 0.14 0.09 0.08 0.09 0.08 0.07 0.05 0.04 0.03 0.02 0.03 0.04 0.04 0.05 0.06 0.06 0.07 0.09 0.10 0.10 0.12 0.14 0.14 0.13 0.12 0.14 0.16 0.18 0.20 0.21 0.18 0.15 0.14 0.14 0.15 0.15 0.16 0.17 0.19 0.20 0.25

GEFSCGP_prec_meanprecacc_246.txt.gz
Total_Precipitation_Accumulation
0.80 1.35 1.66 1.53 1.51 1.47 1.28 1.24 1.10 0.94 0.91 0.93 0.84 0.83 0.88 0.87 0.84 0.71 0.57 0.45 0.42 0.38 0.31 0.27 0.24 0.27 0.31 0.35 0.40 0.47 0.53 0.70 0.83 0.89 0.99 1.18 1.36 1.53 1.68 1.79 1.68 1.54 1.50 1.68
0.87 1.17 0.93 0.84 0.98 1.03 1.11 1.13 1.00 0.85 0.73 0.72 0.73 0.75 0.78 0.74 0.73 0.61 0.49 0.40 0.32 0.26 0.23 0.19 0.15 0.16 0.20 0.23 0.27 0.33 0.40 0.50 0.63 0.79 1.02 1.22 1.52 1.61 1.70 1.82 1.86 1.79 1.73 1.89
0.92 0.84 0.59 0.68 0.87 0.90 0.91 0.98 0.89 0.80 0.69 0.64 0.61 0.76 0.75 0.69 0.65 0.57 0.44 0.35 0.27 0.21 0.18 0.13 0.12 0.12 0.17 0.18 0.19 0.26 0.38 0.50 0.71 0.95 1.27 1.56 1.81 1.89 1.93 1.87 1.92 2.00 2.04 2.11
0.85 0.63 0.56 0.68 0.75 0.79 0.88 0.66 0.60 0.59 0.67 0.67 0.59 0.85 0.65 0.55 0.55 0.50 0.42 0.38 0.30 0.21 0.16 0.14 0.13 0.12 0.13 0.17 0.22 0.34 0.51 0.70 0.96 1.29 1.65 1.89 2.13 2.23 2.08 2.05 2.08 2.08 2.03 2.06
0.70 0.58 0.56 0.65 0.53 0.51 0.59 0.51 0.59 0.60 0.59 0.52 0.41 0.56 0.55 0.46 0.52 0.43 0.35 0.35 0.34 0.28 0.21 0.18 0.19 0.19 0.23 0.30 0.38 0.54 0.79 1.09 1.37 1.60 1.78 1.98 2.11 2.14 2.11 2.06 2.05 1.99 1.95 1.93
0.52 0.45 0.47 0.44 0.37 0.39 0.42 0.50 0.63 0.65 0.65 0.66 0.36 0.44 0.54 0.44 0.42 0.37 0.33 0.31 0.28 0.26 0.25 0.25 0.28 0.34 0.41 0.47 0.61 0.79 0.98 1.27 1.45 1.56 1.67 1.85 2.00 2.05 2.05 2.02 2.02 2.02 2.00 1.90
0.47 0.40 0.33 0.29 0.35 0.37 0.41 0.67 0.95 0.98 0.93 0.70 0.35 0.50 0.60 0.45 0.36 0.32 0.32 0.31 0.28 0.32 0.35 0.35 0.43 0.57 0.66 0.69 0.79 0.94 1.04 1.23 1.34 1.38 1.45 1.59 1.65 1.71 1.77 1.75 1.71 1.66 1.62 1.63
0.45 0.45 0.30 0.26 0.32 0.37 0.37 0.57 0.94 1.02 0.88 0.64 0.47 0.71 0.66 0.44 0.35 0.33 0.33 0.31 0.33 0.44 0.53 0.62 0.74 0.83 0.90 0.91 0.89 0.93 1.07 1.12 1.10 1.12 1.12 1.25 1.33 1.39 1.45 1.44 1.43 1.46 1.51 1.54
0.37 0.37 0.23 0.18 0.20 0.29 0.36 0.40 0.46 0.66 0.62 0.65 0.62 0.80 0.75 0.45 0.39 0.34 0.34 0.36 0.43 0.58 0.77 0.98 1.15 1.25 1.32 1.24 1.06 0.93 0.94 0.94 0.92 0.98 1.02 1.08 1.16 1.20 1.22 1.24 1.19 1.29 1.34 1.35
0.28 0.36 0.28 0.19 0.21 0.24 0.30 0.40 0.52 0.77 0.94 0.90 0.81 0.94 0.92 0.65 0.53 0.45 0.46 0.56 0.70 0.91 1.20 1.45 1.67 1.79 1.76 1.57 1.32 1.04 0.88 0.85 0.82 0.86 0.92 0.99 1.02 1.02 1.00 1.04 0.97 1.03 1.12 1.12
0.22 0.35 0.31 0.25 0.27 0.31 0.34 0.48 0.60 0.76 0.83 1.05 1.18 1.20 0.97 0.87 0.76 0.73 0.80 0.96 1.17 1.43 1.62 1.77 1.92 1.97 1.71 1.53 1.29 1.04 0.88 0.89 0.91 0.93 0.95 0.94 0.89 0.87 0.85 0.83 0.80 0.84 0.91 0.91
0.19 0.29 0.35 0.23 0.20 0.26 0.45 0.65 0.85 1.16 1.07 1.02 1.24 1.29 0.93 0.86 0.90 0.93 1.05 1.11 1.23 1.38 1.39 1.47 1.55 1.51 1.47 1.41 1.23 1.06 0.97 0.97 1.02 1.04 1.06 0.98 0.89 0.82 0.79 0.76 0.68 0.69 0.67 0.67
0.29 0.43 0.49 0.43 0.46 0.48 0.56 0.59 0.67 0.85 0.96 1.02 1.29 1.36 0.90 0.81 0.82 0.97 1.15 1.21 1.28 1.31 1.22 1.21 1.23 1.29 1.31 1.27 1.14 1.11 1.07 1.08 1.08 1.08 0.99 0.91 0.82 0.71 0.65 0.57 0.53 0.60 0.61 0.68
0.27 0.46 0.57 0.67 0.62 0.58 0.64 0.61 0.55 0.66 0.95 1.00 1.17 1.15 0.94 0.86 0.83 0.92 1.06 1.15 1.12 1.05 0.98 0.98 1.05 1.13 1.19 1.16 1.12 1.06 1.01 1.04 1.14 1.21 1.11 1.00 0.88 0.77 0.68 0.60 0.55 0.55 0.58 0.65
0.20 0.25 0.27 0.26 0.25 0.34 0.55 0.65 0.63 0.62 0.68 0.90 0.90 0.81 0.77 0.73 0.75 0.77 0.81 0.79 0.70 0.65 0.66 0.71 0.77 0.78 0.74 0.70 0.75 0.78 0.83 0.94 1.09 1.23 1.21 1.07 0.89 0.77 0.69 0.64 0.56 0.55 0.56 0.57
0.13 0.15 0.14 0.14 0.14 0.23 0.38 0.49 0.50 0.47 0.47 0.56 0.62 0.61 0.52 0.49 0.54 0.55 0.58 0.53 0.49 0.45 0.43 0.42 0.44 0.44 0.43 0.39 0.37 0.38 0.46 0.61 0.85 1.11 1.09 0.89 0.71 0.58 0.53 0.54 0.54 0.51 0.49 0.54
0.08 0.12 0.16 0.16 0.12 0.19 0.41 0.42 0.40 0.41 0.33 0.34 0.40 0.39 0.35 0.39 0.45 0.46 0.52 0.53 0.41 0.33 0.31 0.30 0.30 0.30 0.29 0.27 0.26 0.28 0.37 0.48 0.64 0.76 0.74 0.65 0.54 0.51 0.54 0.55 0.50 0.49 0.49 0.50
0.08 0.11 0.17 0.18 0.20 0.45 0.67 0.57 0.48 0.45 0.27 0.19 0.21 0.23 0.26 0.37 0.40 0.42 0.41 0.42 0.41 0.30 0.22 0.22 0.21 0.21 0.25 0.25 0.29 0.33 0.38 0.42 0.46 0.49 0.51 0.47 0.45 0.46 0.50 0.50 0.49 0.56 0.60 0.57
0.12 0.20 0.26 0.27 0.34 0.54 0.62 0.53 0.53 0.52 0.37 0.18 0.15 0.15 0.15 0.15 0.17 0.20 0.22 0.20 0.21 0.17 0.14 0.13 0.12 0.12 0.15 0.15 0.15 0.17 0.19 0.21 0.21 0.20 0.22 0.23 0.22 0.25 0.28 0.29 0.35 0.46 0.53 0.56
0.14 0.21 0.30 0.32 0.42 0.54 0.43 0.27 0.28 0.41 0.51 0.16 0.09 0.09 0.07 0.06 0.10 0.12 0.13 0.14 0.12 0.10 0.11 0.10 0.09 0.10 0.11 0.11 0.11 0.10 0.10 0.10 0.10 0.10 0.10 0.13 0.14 0.14 0.15 0.18 0.23 0.29 0.29 0.35
0.13 0.20 0.26 0.32 0.51 0.69 0.49 0.29 0.27 0.48 0.50 0.14 0.06 0.05 0.04 0.06 0.06 0.07 0.10 0.12 0.11 0.10 0.11 0.11 0.10 0.10 0.11 0.12 0.11 0.10 0.10 0.10 0.10 0.13 0.15 0.15 0.14 0.14 0.14 0.15 0.18 0.22 0.22 0.26
0.17 0.24 0.28 0.41 0.70 0.89 0.67 0.46 0.42 0.34 0.16 0.08 0.04 0.03 0.03 0.04 0.04 0.05 0.08 0.10 0.10 0.10 0.10 0.11 0.09 0.09 0.11 0.11 0.11 0.11 0.11 0.11 0.11 0.12 0.12 0.15 0.15 0.15 0.15 0.15 0.18 0.21 0.23 0.23
0.12 0.16 0.23 0.36 0.57 0.58 0.51 0.40 0.30 0.23 0.12 0.05 0.03 0.03 0.02 0.03 0.03 0.05 0.07 0.07 0.07 0.08 0.08 0.09 0.11 0.10 0.11 0.11 0.11 0.10 0.12 0.13 0.12 0.12 0.13 0.15 0.16 0.15 0.14 0.15 0.19 0.21 0.24 0.25
0.09 0.09 0.12 0.13 0.18 0.20 0.22 0.21 0.14 0.12 0.08 0.03 0.03 0.03 0.03 0.04 0.03 0.04 0.06 0.08 0.07 0.08 0.08 0.09 0.11 0.12 0.12 0.12 0.12 0.14 0.13 0.12 0.12 0.13 0.15 0.16 0.17 0.17 0.16 0.17 0.19 0.20 0.23 0.27
0.09 0.11 0.14 0.14 0.09 0.08 0.11 0.12 0.11 0.08 0.05 0.03 0.02 0.03 0.04 0.04 0.06 0.06 0.07 0.10 0.11 0.10 0.11 0.13 0.14 0.13 0.13 0.14 0.15 0.17 0.17 0.14 0.12 0.13 0.14 0.14 0.15 0.16 0.17 0.18 0.18 0.19 0.20 0.27
0.05 0.09 0.15 0.15 0.10 0.09 0.09 0.08 0.07 0.06 0.04 0.03 0.03 0.04 0.05 0.05 0.06 0.07 0.08 0.09 0.11 0.12 0.12 0.14 0.15 0.15 0.14 0.13 0.15 0.16 0.19 0.21 0.21 0.18 0.15 0.14 0.14 0.15 0.16 0.16 0.17 0.19 0.20 0.25